www.pogodaiklimat.ru

Погода и климат >> Архив погоды >> Россия >> Бурятия >> Улан-Удэ


АРХИВ ПОГОДЫ в Улан-Удэ

Время (UTC), дата Ветер
(напр.,м/с)
 
Видим.   Явления Облачность Т
(С)
Тd
(С)
f
(%)
Тe
(С)
Тes
(С)
Комфортность P
(гПа)
Po
(гПа)
Тmin
(С)
Tmax
(С)
R
(мм)
R24
(мм)
S
(см)
18 11.08 З 3 50 км в посл. час ливневой дождь {гроза} 10/10 600 м
[Cb cap]
+13.8 +10.4 80 +13 +13 по сезону 1010.6 951.1
21 11.08 З 2 50 км {ливн. осадки} 10/10 600 м
[Cb cap]
+13.7 +9.1 74 +13 +13 по сезону 1011.4 951.8
00 12.08 СЗ 2 50 км {ливн. осадки} 10/8 300 м
[Cb cap Ci sp]
+13.7 +7.9 68 +13 +14 по сезону 1012.7 953.0 +13.2 13
03 12.08 С 5 50 км 8/8 1000 м
[Cb cap]
+17.7 +8.5 55 +17 +18 по сезону 1011.9 953.0
06 12.08 С 3 50 км 8/8 1000 м
[Cb cap]
+19.5 +7.2 45 +20 +23 прохладно 1011.1 952.6
09 12.08 СЗ 3 50 км 4/4 1000 м
[Cb cap]
+20.0 +6.5 41 +21 +23 комфорт 1010.0 951.7
12 12.08 ЮЗ 1 50 км 1/0
[Ci sp]
+18.2 +9.6 57 +20 +20 по сезону 1009.9 951.3 +20.6
15 12.08 З 1 50 км 3/0
[Ci fib]
+13.2 +9.1 76 +13 +13 прохладно 1011.7 952.0
18 12.08 В 1 50 км 10/4 1000 м
[Cb cap Ci sp]
+12.8 +9.0 78 +13 +13 по сезону 1011.3 951.5
21 12.08 В 2 20 км слаб. ливневой дождь 10/10 600 м
[Cb cap]
+12.0 +9.5 85 +11 +11 прохладно 1010.7 950.8
00 13.08 В 1 20 км слаб. ливневой дождь 10/10 600 м
[Cb cap]
+12.0 +9.1 82 +12 +12 по сезону 1011.3 951.3 +11.6 0.5
03 13.08 В 4 50 км {ливн. осадки} 10/4 600 м
[Cb cap Ac trans Ci]
+16.5 +10.5 68 +16 +18 по сезону 1009.0 950.1
06 13.08 ЮЗ 5 50 км гроза, ливневой дождь 10/10 600 м
[Cb cap]
+15.5 +11.7 78 +14 +14 очень
холодно
1008.6 949.6
09 13.08 СЗ 2 50 км слаб. ливневой дождь {гроза} 10/10 600 м
[Cb cap]
+15.1 +11.9 81 +15 +15 холодно 1008.7 949.6
12 13.08 З 1 50 км в посл. час ливневой дождь {гроза} 8/1 1000 м
[Cb cap Ac trans Ci sp]
+13.4 +11.3 87 +14 +14 холодно 1009.5 950.0 +18.0 4
15 13.08 Ю 1 50 км 10/5 1000 м
[Sc Ac trans Ci sp]
+10.8 +9.4 91 +10 +10 очень
холодно
1010.8 950.6
18 13.08 З 1 2000 м дымка 9/9 300 м
[St]
+9.7 +8.5 92 +9 +9 холодно 1011.0 950.6
21 13.08 З 1 4000 м дымка 6/6 300 м
[St]
+9.8 +8.7 93 +9 +9 прохладно 1010.8 950.4
00 14.08 З 1 4000 м туман ?/? +9.5 +8.6 94 +9 +9 прохладно 1011.0 950.6 +9.4 6
03 14.08 СЗ 2 50 км {туман} 10/10 300 м
[St]
+12.3 +9.9 85 +11 +11 холодно 1010.1 950.3
06 14.08 З 1 50 км {туман} 6/6 1000 м
[Cb cap]
+19.3 +11.3 60 +21 +27 комфорт 1006.8 948.6
09 14.08 С 3 50 км 10/10 1000 м
[Cb cap]
+17.4 +8.7 57 +17 +17 прохладно 1007.3 948.7
12 14.08 СЗ 2 50 км 10/10 1000 м
[Cb cap]
+15.8 +9.6 67 +16 +16 прохладно 1009.1 950.1 +20.6
15 14.08 СЗ 2 50 км 10/8 1000 м
[Cb cap Ci sp]
+14.3 +9.5 73 +14 +14 прохладно 1011.1 951.6
18 14.08 СЗ 2 50 км 8/0
[Ac trans Ci fib]
+13.5 +9.3 76 +13 +13 по сезону 1012.3 952.6
21 14.08 ЮЗ 2 50 км 3/3 1000 м
[Sc]
+11.5 +8.7 83 +10 +10 прохладно 1013.9 953.7
00 15.08 ЮЗ 2 50 км 3/3 1000 м
[Sc]
+14.4 +9.9 74 +14 +16 по сезону 1014.3 954.7 +11.0
03 15.08 С 4 50 км 8/8 1000 м
[Cb cap]
+16.9 +9.5 62 +16 +18 по сезону 1014.1 955.0
06 15.08 СЗ 4 50 км 8/8 1000 м
[Cb cap]
+18.3 +9.0 55 +18 +20 прохладно 1013.3 954.5
09 15.08 С 3 50 км 6/6 1000 м
[Cb cap]
+20.2 +8.8 48 +22 +23 комфорт 1012.3 953.9
12 15.08 С 2 50 км 4/4 1000 м
[Sc]
+17.2 +8.5 57 +18 +18 прохладно 1012.7 953.7 +20.4
15 15.08 Ю 2 50 км 4/4 1000 м
[Sc]
+13.3 +9.4 77 +13 +13 прохладно 1013.6 953.8
18 15.08 ЮЗ 1 50 км 6/6 1000 м
[Sc]
+10.8 +8.9 88 +10 +10 прохладно 1014.3 953.9
21 15.08 ЮЗ 1 50 км 6/3 1000 м
[Sc Ci sp]
+9.1 +7.9 92 +8 +8 холодно 1014.7 953.9
00 16.08 З 1 2000 м дымка 8/8 1000 м
[Sc]
+10.3 +9.3 94 +10 +10 прохладно 1014.8 954.3 +8.5 0.5
03 16.08 З 2 50 км 1/1 1000 м
[Cu hum]
+18.5 +11.2 62 +19 +30 тепло 1012.0 953.4
06 16.08 З 3 50 км 8/6 1000 м
[Cb cap Ci fib]
+23.0 +7.6 37 +24 +28 комфорт 1009.2 951.5
09 16.08 З 3 50 км 3/3 600 м
[Cb cap]
+23.9 +7.0 34 +24 +27 комфорт 1008.0 950.5
12 16.08 С 1 50 км ясно +20.3 +10.5 53 +23 +23 комфорт 1008.6 950.4 +24.4
15 16.08 ЮВ 1 50 км ясно +16.0 +10.0 68 +17 +17 по сезону 1009.7 950.7
18 16.08 ЮЗ 1 50 км ясно +11.9 +9.0 82 +12 +12 по сезону 1010.3 950.4
21 16.08 В 3 50 км 4/0
[Ac trans]
+9.9 +7.9 87 +8 +8 холодно 1010.5 950.2
00 17.08 В 2 4000 м дымка 9/3 1000 м
[Sc Ci fib]
+11.5 +8.0 79 +10 +12 прохладно 1009.8 949.8 +9.5
03 17.08 ЮЗ 3 4000 м дымка 10/10 1000 м
[Sc]
+15.0 +10.0 72 +14 +14 прохладно 1008.0 948.9
06 17.08 штиль 0 10 км слаб. ливневой дождь 10/10 600 м
[Cb cap]
+14.1 +11.9 87 +14 +14 очень
холодно
1007.6 948.4
09 17.08 В 1 10 км слаб. ливневой дождь 10/10 600 м
[Cb cap]
+15.3 +13.2 87 +16 +16 холодно 1006.8 947.9
12 17.08 СЗ 2 50 км {ливн. осадки} 10/10 1000 м
[Cb cap]
+14.5 +12.7 89 +14 +14 холодно 1007.1 948.0 +15.7 3
15 17.08 СЗ 2 50 км 10/10 1000 м
[Cb cap]
+14.2 +12.4 89 +14 +14 прохладно 1008.0 948.7
18 17.08 З 2 50 км {ливн. осадки} 10/10 1000 м
[Cb cap]
+13.9 +11.8 87 +13 +13 по сезону 1008.8 949.4
21 17.08 З 3 50 км 10/10 1000 м
[Cb cap]
+13.6 +11.1 85 +12 +12 по сезону 1010.0 950.5
00 18.08 З 1 50 км 10/8 1000 м
[Cb cap Ac trans]
+14.7 +11.6 82 +15 +15 тепло 1010.9 951.5 +13.3 0.3
03 18.08 С 2 50 км 10/8 1000 м
[Cb cap Ac trans]
+17.5 +10.8 65 +18 +19 по сезону 1011.0 952.2
06 18.08 С 3 20 км дым 10/8 1000 м
[Cb cap Ac trans]
+18.7 +10.8 60 +19 +20 прохладно 1010.5 952.0
09 18.08 С 3 20 км дым 3/3 1000 м
[Cu hum]
+20.2 +9.6 50 +22 +24 комфорт 1009.3 951.1
12 18.08 СЗ 1 20 км дым 4/0
[Ci fib]
+17.2 +10.4 64 +18 +18 по сезону 1009.9 951.1 +20.8
15 18.08 З 2 20 км дым 6/0
[Ci sp]
+12.9 +10.4 85 +12 +12 прохладно 1011.2 951.5

 

Местоположение метеостанции Улан-Удэ (Бурятия, Россия): широта 51.83 долгота 107.60 высота над уровнем моря 515 м.

В архиве по умолчанию представлена погода в Улан-Удэ за последнюю неделю. Архивные данные за месяц целиком и за предыдущие месяцы, начиная с января 2011 года, Вы можете получить, выбрав интересующий диапазон дат из раскрывающегося списка и нажав кнопку "Ввод!".


*Определитесь, кто Вы:
робот инопланетянин человек

Внимание! Время в таблицах - всемирное. Для получения местного времени необходимо прибавить поправку, которая равна 8 ч.

Смотрите также архив погоды в соседних городах и на ближайших метеорологических станциях:

Погода в Улан-Удэ АМС (Бурятия, Россия) (10 км)
Погода в Иволгинске (Бурятия, Россия) (29 км)
Погода в Новой Курбе (Бурятия, Россия) (67 км)
Погода в Кабанске (Бурятия, Россия) (73 км)
Погода в Сухой (Бурятия, Россия) (87 км)
Погода в Мухоршибири (Бурятия, Россия) (90 км)
Погода в Петровском Заводе (Забайкальский край, Россия) (100 км)
Погода в Новоселенгинске (Бурятия, Россия) (107 км)
Погода в Бабушкине (Бурятия, Россия) (125 км)
Погода в Горячинске (Бурятия, Россия) (134 км)

Пояснения к столбцам:

Ветер - указаны скорость ветра в м/с - средняя за 10 мин, порывы в срок и между сроками (в фигурных скобках) и направление, откуда дует ветер: С - северный, СВ - северо-восточный, В - восточный, ЮВ - юго-восточный, Ю - южный, ЮЗ - юго-западный, З - западный, СЗ - северо-западный.
Видимость - горизонтальная дальность видимости в метрах или километрах. При видимости от 1 до 10 км при отсутствии осадков обычно наблюдается дымка, при ухудшении видимости до 1 км и менее - туман. В сухую погоду видимость может ухудшаться дымом, пылью или мглою.
Явления - указаны атмосферные явления, наблюдавшиеся в срок или в последний час перед сроком; фигурными скобками обозначены явления, наблюдавшиеся между сроками (за 1-3 часа до срока); квадратными скобками обозначены град или гололедные отложения с указанием их диаметра в мм.
Облачность - указаны через наклонную черту общая и нижняя облачность в баллах и высота нижней границы облаков в метрах; квадратными скобками обозначены формы облаков: Ci - перистые, Cs - перисто-слоистые, Cc - перисто-кучевые, Ac - высококучевые, As - высокослоистые, Sc - слоисто-кучевые, Ns - слоисто-дождевые, Cu - кучевые, Cb - кучево-дождевые. Подробнее классификацию облаков см. в Атласе облаков (PDF).
T - Температура воздуха - температура, измеренная на высоте 2 м над землей.
Td - Температура точки росы - температура, при понижении до которой содержащийся в воздухе водяной пар достигнет насыщения.
f - Относительная влажность воздуха - влажноcть воздуха, измеренная на высоте 2 м над землей.
Te - Эффективная температура - температура, которую ощущает одетый по сезону человек в тени. Характеристика душности погоды. При расчете учитывается влияние влажности воздуха и скорости ветра на теплоощущения человека.
Tes - Эффективная температура на солнце - температура, которую ощущает человек, с поправкой на солнечный нагрев. Характеристика знойности погоды. Зависит от высоты солнца над горизонтом, облачности и скорости ветра. Ночью, в пасмурную погоду, а также при ветре 12 м/с и более поправка равна нулю.
P - Атмосферное давление - приведенное к уровню моря атмосферное давление.
Po - Атмосферное давление - измеренное на уровне метеостанции атмосферное давление.
Tmin - Минимальная температура - минимум температуры воздуха на высоте 2 м над землей.
Tmax - Максимальная температура - максимум температуры воздуха на высоте 2 м над землей.
R - Количество осадков - Количество выпавших осадков за период времени, мм. При наведении курсора мыши на число - период времени, за который выпало указанное количество осадков.
R24 - Количество осадков - Количество выпавших осадков за 24 часа, мм.
S - Снежный покров - Высота снежного покрова, см. При наведении курсора мыши на число - состояние снежного покрова и степень покрытия местности в баллах.